Time,TemperatureF,DewpointF,PressureIn,WindDirection,WindDirectionDegrees,WindSpeedMPH,WindSpeedGustMPH,Humidity,HourlyPrecipIn,Conditions,Clouds,dailyrainin,SoftwareType,DateUTC
2013-05-21 00:13:00,68.3,67.0,30.02,ENE,61,0.0,0.0,94,0.00,,,0.00,weatherlink.com 1.10,2013-05-21 04:13:00,
2013-05-21 00:28:00,67.9,66.0,30.02,ENE,61,0.0,0.0,94,0.00,,,0.00,weatherlink.com 1.10,2013-05-21 04:28:00,
2013-05-21 00:43:00,67.6,66.0,30.02,ENE,61,0.0,0.0,95,0.00,,,0.00,weatherlink.com 1.10,2013-05-21 04:43:00,
2013-05-21 00:58:00,67.3,66.0,30.01,ENE,61,0.0,0.0,95,0.00,,,0.00,weatherlink.com 1.10,2013-05-21 04:58:00,
2013-05-21 01:13:00,66.9,66.0,30.01,ENE,61,0.0,0.0,95,0.00,,,0.00,weatherlink.com 1.10,2013-05-21 05:13:00,
2013-05-21 01:28:00,66.7,65.0,30.01,ENE,61,0.0,0.0,95,0.00,,,0.00,weatherlink.com 1.10,2013-05-21 05:28:00,
2013-05-21 01:43:00,66.7,66.0,30.01,ENE,61,0.0,0.0,96,0.00,,,0.00,weatherlink.com 1.10,2013-05-21 05:43:00,
2013-05-21 01:58:00,66.7,66.0,30.01,ENE,61,0.0,0.0,96,0.00,,,0.00,weatherlink.com 1.10,2013-05-21 05:58:00,
2013-05-21 02:13:00,66.6,66.0,30.00,ENE,61,0.0,0.0,96,0.00,,,0.00,weatherlink.com 1.10,2013-05-21 06:13:00,
2013-05-21 02:28:00,66.5,65.0,30.00,ENE,61,0.0,0.0,96,0.00,,,0.00,weatherlink.com 1.10,2013-05-21 06:28:00,
2013-05-21 02:43:00,66.5,66.0,30.00,ENE,61,0.0,0.0,97,0.00,,,0.00,weatherlink.com 1.10,2013-05-21 06:43:00,
2013-05-21 02:58:00,66.3,65.0,29.99,ENE,61,0.0,0.0,96,0.00,,,0.00,weatherlink.com 1.10,2013-05-21 06:58:00,
2013-05-21 03:13:00,66.2,65.0,29.99,ENE,61,0.0,0.0,97,0.00,,,0.00,weatherlink.com 1.10,2013-05-21 07:13:00,
2013-05-21 03:28:00,66.2,65.0,30.00,ENE,61,0.0,0.0,97,0.00,,,0.00,weatherlink.com 1.10,2013-05-21 07:28:00,
2013-05-21 03:43:00,66.0,65.0,30.00,ENE,61,0.0,0.0,97,0.00,,,0.00,weatherlink.com 1.10,2013-05-21 07:43:00,
2013-05-21 03:58:00,65.8,65.0,30.00,ENE,61,0.0,0.0,97,0.00,,,0.00,weatherlink.com 1.10,2013-05-21 07:58:00,
2013-05-21 04:13:00,65.7,65.0,30.00,ENE,61,0.0,0.0,97,0.00,,,0.00,weatherlink.com 1.10,2013-05-21 08:13:00,
2013-05-21 04:28:00,65.9,65.0,29.99,ENE,61,0.0,0.0,97,0.00,,,0.00,weatherlink.com 1.10,2013-05-21 08:28:00,
2013-05-21 04:43:00,65.8,65.0,29.99,ENE,61,0.0,0.0,97,0.00,,,0.00,weatherlink.com 1.10,2013-05-21 08:43:00,
2013-05-21 04:58:00,65.6,65.0,30.00,ENE,61,0.0,0.0,97,0.00,,,0.00,weatherlink.com 1.10,2013-05-21 08:58:00,
2013-05-21 05:13:00,65.4,65.0,30.00,ENE,61,0.0,0.0,97,0.00,,,0.00,weatherlink.com 1.10,2013-05-21 09:13:00,
2013-05-21 05:28:00,65.2,64.0,30.00,ENE,61,0.0,0.0,97,0.00,,,0.00,weatherlink.com 1.10,2013-05-21 09:28:00,
2013-05-21 05:43:00,65.0,64.0,30.00,ENE,61,0.0,0.0,97,0.00,,,0.00,weatherlink.com 1.10,2013-05-21 09:43:00,
2013-05-21 05:58:00,64.7,64.0,30.00,ENE,61,0.0,0.0,97,0.00,,,0.00,weatherlink.com 1.10,2013-05-21 09:58:00,
2013-05-21 06:13:00,64.5,64.0,30.01,ENE,61,0.0,0.0,97,0.00,,,0.00,weatherlink.com 1.10,2013-05-21 10:13:00,
2013-05-21 06:28:00,64.4,64.0,30.00,ENE,61,0.0,0.0,97,0.00,,,0.00,weatherlink.com 1.10,2013-05-21 10:28:00,
2013-05-21 06:43:00,64.5,64.0,30.00,ESE,115,0.0,1.0,97,0.00,,,0.00,weatherlink.com 1.10,2013-05-21 10:43:00,
2013-05-21 06:58:00,65.9,65.0,30.01,East,99,0.0,2.0,98,0.00,,,0.00,weatherlink.com 1.10,2013-05-21 10:58:00,
2013-05-21 07:13:00,66.8,66.0,30.01,East,99,0.0,0.0,98,0.00,,,0.00,weatherlink.com 1.10,2013-05-21 11:13:00,
2013-05-21 07:28:00,67.7,67.0,30.02,SSE,155,1.0,2.0,98,0.00,,,0.00,weatherlink.com 1.10,2013-05-21 11:28:00,
2013-05-21 07:43:00,68.5,68.0,30.02,ESE,108,2.0,2.0,98,0.00,,,0.00,weatherlink.com 1.10,2013-05-21 11:43:00,
2013-05-21 07:59:00,69.0,69.0,30.02,ESE,108,0.0,3.0,98,0.00,,,0.00,weatherlink.com 1.10,2013-05-21 11:59:00,
2013-05-21 08:14:00,69.3,69.0,30.02,ESE,103,0.0,3.0,98,0.00,,,0.00,weatherlink.com 1.10,2013-05-21 12:14:00,
2013-05-21 08:29:00,70.0,69.0,30.02,SE,144,5.0,7.0,98,0.00,,,0.00,weatherlink.com 1.10,2013-05-21 12:29:00,
2013-05-21 08:44:00,70.9,70.0,30.02,NNE,15,1.0,5.0,96,0.00,,,0.00,weatherlink.com 1.10,2013-05-21 12:44:00,
2013-05-21 08:59:00,72.2,70.0,30.02,ESE,107,0.0,2.0,94,0.00,,,0.00,weatherlink.com 1.10,2013-05-21 12:59:00,
2013-05-21 09:14:00,73.3,70.0,30.03,East,82,3.0,5.0,90,0.00,,,0.00,weatherlink.com 1.10,2013-05-21 13:14:00,
2013-05-21 09:29:00,74.4,70.0,30.04,ESE,110,2.0,3.0,86,0.00,,,0.00,weatherlink.com 1.10,2013-05-21 13:29:00,
2013-05-21 09:44:00,75.7,71.0,30.04,ESE,109,3.0,3.0,85,0.00,,,0.00,weatherlink.com 1.10,2013-05-21 13:44:00,
2013-05-21 09:59:00,76.9,71.0,30.04,South,169,0.0,3.0,81,0.00,,,0.00,weatherlink.com 1.10,2013-05-21 13:59:00,
2013-05-21 10:14:00,77.8,71.0,30.04,WNW,285,1.0,5.0,80,0.00,,,0.00,weatherlink.com 1.10,2013-05-21 14:14:00,
2013-05-21 10:29:00,78.9,71.0,30.03,WSW,258,1.0,3.0,76,0.00,,,0.00,weatherlink.com 1.10,2013-05-21 14:29:00,
2013-05-21 10:44:00,80.0,72.0,30.03,SSE,150,1.0,3.0,77,0.00,,,0.00,weatherlink.com 1.10,2013-05-21 14:44:00,
2013-05-21 10:59:00,81.1,72.0,30.03,East,93,1.0,5.0,74,0.00,,,0.00,weatherlink.com 1.10,2013-05-21 14:59:00,
2013-05-21 11:14:00,82.3,72.0,30.03,WSW,241,3.0,4.0,70,0.00,,,0.00,weatherlink.com 1.10,2013-05-21 15:14:00,
2013-05-21 11:29:00,83.3,72.0,30.03,ESE,122,2.0,4.0,69,0.00,,,0.00,weatherlink.com 1.10,2013-05-21 15:29:00,
2013-05-21 11:44:00,83.5,70.0,30.03,ESE,110,2.0,7.0,63,0.00,,,0.00,weatherlink.com 1.10,2013-05-21 15:44:00,
2013-05-21 11:59:00,83.9,70.0,30.02,East,96,0.0,5.0,63,0.00,,,0.00,weatherlink.com 1.10,2013-05-21 15:59:00,
2013-05-21 12:14:00,84.4,69.0,30.02,East,96,1.0,3.0,61,0.00,,,0.00,weatherlink.com 1.10,2013-05-21 16:14:00,
2013-05-21 12:30:00,85.8,68.0,30.01,East,81,1.0,3.0,56,0.00,,,0.00,weatherlink.com 1.10,2013-05-21 16:30:00,
2013-05-21 12:45:00,86.2,69.0,30.01,WNW,284,3.0,5.0,56,0.00,,,0.00,weatherlink.com 1.10,2013-05-21 16:45:00,
2013-05-21 13:00:00,87.7,67.0,30.00,WSW,250,0.0,3.0,51,0.00,,,0.00,weatherlink.com 1.10,2013-05-21 17:00:00,
2013-05-21 13:15:00,87.5,67.0,30.00,ESE,113,0.0,3.0,50,0.00,,,0.00,weatherlink.com 1.10,2013-05-21 17:15:00,
2013-05-21 13:30:00,89.1,69.0,30.00,North,4,0.0,4.0,51,0.00,,,0.00,weatherlink.com 1.10,2013-05-21 17:30:00,
2013-05-21 13:45:00,90.0,67.0,29.99,East,98,0.0,2.0,47,0.00,,,0.00,weatherlink.com 1.10,2013-05-21 17:45:00,
2013-05-21 14:00:00,89.9,71.0,29.98,South,180,0.0,4.0,54,0.00,,,0.00,weatherlink.com 1.10,2013-05-21 18:00:00,
2013-05-21 14:15:00,89.8,69.0,29.97,West,269,2.0,6.0,51,0.00,,,0.00,weatherlink.com 1.10,2013-05-21 18:15:00,
2013-05-21 14:30:00,88.7,67.0,29.97,WNW,288,2.0,5.0,49,0.00,,,0.00,weatherlink.com 1.10,2013-05-21 18:30:00,
2013-05-21 14:45:00,87.6,66.0,29.97,WSW,237,0.0,5.0,49,0.00,,,0.00,weatherlink.com 1.10,2013-05-21 18:45:00,
2013-05-21 15:00:00,88.8,67.0,29.96,ESE,102,1.0,3.0,49,0.00,,,0.00,weatherlink.com 1.10,2013-05-21 19:00:00,
2013-05-21 15:15:00,89.5,66.0,29.96,NE,50,0.0,6.0,46,0.00,,,0.00,weatherlink.com 1.10,2013-05-21 19:15:00,
2013-05-21 15:30:00,89.4,67.0,29.95,ENE,77,0.0,6.0,48,0.00,,,0.00,weatherlink.com 1.10,2013-05-21 19:30:00,
2013-05-21 15:45:00,90.1,67.0,29.94,NE,56,1.0,5.0,46,0.00,,,0.00,weatherlink.com 1.10,2013-05-21 19:45:00,
2013-05-21 16:00:00,90.9,68.0,29.94,East,82,1.0,3.0,47,0.00,,,0.00,weatherlink.com 1.10,2013-05-21 20:00:00,
2013-05-21 16:15:00,91.1,67.0,29.93,SE,131,1.0,3.0,45,0.00,,,0.00,weatherlink.com 1.10,2013-05-21 20:15:00,
2013-05-21 16:30:00,91.4,67.0,29.93,North,1,0.0,3.0,44,0.00,,,0.00,weatherlink.com 1.10,2013-05-21 20:30:00,
2013-05-21 16:45:00,90.7,68.0,29.93,ESE,105,1.0,3.0,47,0.00,,,0.00,weatherlink.com 1.10,2013-05-21 20:45:00,
2013-05-21 17:00:00,90.5,67.0,29.93,NE,36,0.0,4.0,46,0.00,,,0.00,weatherlink.com 1.10,2013-05-21 21:00:00,
2013-05-21 17:15:00,89.1,66.0,29.93,ENE,58,0.0,4.0,46,0.00,,,0.00,weatherlink.com 1.10,2013-05-21 21:15:00,
2013-05-21 17:30:00,86.6,66.0,29.93,ESE,107,0.0,3.0,51,0.00,,,0.00,weatherlink.com 1.10,2013-05-21 21:30:00,
2013-05-21 17:45:00,85.3,68.0,29.92,ESE,107,2.0,3.0,57,0.00,,,0.00,weatherlink.com 1.10,2013-05-21 21:45:00,
2013-05-21 18:00:00,86.8,68.0,29.91,East,98,0.0,4.0,54,0.00,,,0.00,weatherlink.com 1.10,2013-05-21 22:00:00,
2013-05-21 18:15:00,85.8,68.0,29.92,NE,47,0.0,7.0,55,0.00,,,0.00,weatherlink.com 1.10,2013-05-21 22:15:00,
2013-05-21 18:30:00,82.5,67.0,29.92,NE,38,8.0,8.0,60,0.00,,,0.00,weatherlink.com 1.10,2013-05-21 22:30:00,
2013-05-21 18:45:00,80.1,67.0,29.92,ESE,113,3.0,8.0,65,0.00,,,0.00,weatherlink.com 1.10,2013-05-21 22:45:00,
2013-05-21 19:00:00,78.8,67.0,29.93,NNE,27,4.0,5.0,67,0.00,,,0.00,weatherlink.com 1.10,2013-05-21 23:00:00,
2013-05-21 19:15:00,78.1,67.0,29.93,ENE,65,2.0,3.0,68,0.00,,,0.00,weatherlink.com 1.10,2013-05-21 23:15:00,
2013-05-21 19:30:00,77.6,67.0,29.93,NNE,12,0.0,2.0,70,0.00,,,0.00,weatherlink.com 1.10,2013-05-21 23:30:00,
2013-05-21 19:45:00,77.2,67.0,29.94,North,1,1.0,4.0,70,0.00,,,0.00,weatherlink.com 1.10,2013-05-21 23:45:00,
2013-05-21 20:00:00,76.7,67.0,29.94,ESE,109,0.0,2.0,71,0.00,,,0.00,weatherlink.com 1.10,2013-05-22 00:00:00,
2013-05-21 20:15:00,76.1,67.0,29.95,ESE,115,0.0,0.0,73,0.00,,,0.00,weatherlink.com 1.10,2013-05-22 00:15:00,
2013-05-21 20:30:00,75.2,66.0,29.96,East,81,0.0,2.0,74,0.00,,,0.00,weatherlink.com 1.10,2013-05-22 00:30:00,
2013-05-21 20:45:00,74.7,66.0,29.95,ENE,61,0.0,1.0,75,0.00,,,0.00,weatherlink.com 1.10,2013-05-22 00:45:00,
2013-05-21 21:00:00,74.4,66.0,29.95,ENE,68,0.0,0.0,76,0.00,,,0.00,weatherlink.com 1.10,2013-05-22 01:00:00,
2013-05-21 21:15:00,73.9,67.0,29.95,ENE,68,0.0,0.0,78,0.00,,,0.00,weatherlink.com 1.10,2013-05-22 01:15:00,
2013-05-21 21:31:00,73.2,66.0,29.95,ENE,68,0.0,0.0,79,0.00,,,0.00,weatherlink.com 1.10,2013-05-22 01:31:00,
2013-05-21 21:46:00,72.6,67.0,29.96,ENE,68,0.0,0.0,81,0.00,,,0.00,weatherlink.com 1.10,2013-05-22 01:46:00,
2013-05-21 22:01:00,71.9,67.0,29.96,ENE,68,0.0,0.0,83,0.00,,,0.00,weatherlink.com 1.10,2013-05-22 02:01:00,
2013-05-21 22:16:00,71.3,66.0,29.97,ENE,68,0.0,0.0,84,0.00,,,0.00,weatherlink.com 1.10,2013-05-22 02:16:00,
2013-05-21 22:31:00,70.8,66.0,29.98,ENE,68,0.0,0.0,85,0.00,,,0.00,weatherlink.com 1.10,2013-05-22 02:31:00,
2013-05-21 22:46:00,70.5,66.0,29.98,ENE,68,0.0,0.0,86,0.00,,,0.00,weatherlink.com 1.10,2013-05-22 02:46:00,
2013-05-21 23:01:00,70.2,66.0,29.98,ENE,68,0.0,0.0,87,0.00,,,0.00,weatherlink.com 1.10,2013-05-22 03:01:00,
2013-05-21 23:16:00,69.9,66.0,29.99,ENE,68,0.0,0.0,88,0.00,,,0.00,weatherlink.com 1.10,2013-05-22 03:16:00,
2013-05-21 23:31:00,69.6,66.0,29.99,NNE,32,0.0,3.0,88,0.00,,,0.00,weatherlink.com 1.10,2013-05-22 03:31:00,
2013-05-21 23:46:00,69.5,66.0,29.99,East,98,0.0,1.0,88,0.00,,,0.00,weatherlink.com 1.10,2013-05-22 03:46:00,